GFSFLT1_sfc_30mbdewp_132.txt.gz
Dewpoint
27 27 26 26 26 27 27 28 28 28 29 29 30 31 31 32 36 35 39 46 46 50 51 54 56 57 56 57 61 63 63 63
26 26 25 26 26 27 28 28 29 28 28 28 28 28 29 31 32 35 38 36 44 44 44 46 48 51 54 59 58 60 60 62
26 25 26 26 27 28 28 28 29 28 29 29 28 28 29 29 31 32 32 36 35 36 39 44 47 48 52 55 59 57 56 58
26 25 26 26 27 28 28 27 28 28 29 28 28 29 29 29 29 29 30 31 33 36 39 42 43 46 48 52 57 58 55 57
26 26 26 26 27 27 27 27 28 28 28 28 27 27 27 28 30 30 31 32 33 34 36 37 39 41 44 47 51 59 59 55
25 26 26 26 26 26 27 28 27 26 26 27 27 27 27 28 29 30 31 32 33 34 36 37 39 42 44 46 50 52 58 57
25 26 25 25 25 25 26 28 26 27 27 27 26 27 27 27 28 29 33 34 35 35 36 37 37 39 41 45 50 53 55 57
25 24 24 24 25 26 25 26 26 26 26 28 28 29 30 30 30 32 33 34 35 36 37 37 38 37 40 41 43 45 48 57
24 24 24 24 25 25 24 25 25 25 25 26 27 29 30 32 32 33 34 34 35 37 38 39 39 39 38 40 42 43 45 47
24 24 24 24 24 24 25 25 24 25 25 26 26 27 31 31 32 34 34 35 35 36 38 39 41 42 41 41 42 42 46 49
23 23 23 23 24 24 24 25 25 25 25 25 26 26 31 31 31 30 32 34 34 35 36 37 39 43 42 42 42 44 45 46
22 22 21 22 23 23 24 24 24 23 24 25 26 26 28 29 28 29 30 32 33 33 33 34 35 37 41 44 44 46 46 47
21 20 20 20 21 22 23 23 21 22 23 24 24 25 26 26 26 26 29 29 32 32 32 32 32 34 36 38 41 46 48 49
19 18 19 20 22 22 23 22 21 21 22 22 22 22 24 23 24 25 26 27 29 31 30 30 30 31 32 34 35 37 37 38
18 17 19 21 22 22 22 22 21 20 19 19 19 20 21 22 23 23 24 26 26 28 29 30 29 29 29 30 30 31 32 33
17 17 19 20 20 21 21 21 20 20 18 17 17 18 19 20 20 21 22 23 25 26 26 27 28 29 29 28 28 27 28 28
16 17 17 18 19 20 20 20 20 19 18 17 17 16 16 17 18 19 20 21 22 22 23 24 26 28 28 27 26 25 26 25
16 17 18 19 20 20 20 19 19 18 18 17 17 16 16 16 17 18 18 19 20 20 20 21 22 25 25 25 24 24 23 24
16 18 18 19 20 20 19 17 17 17 17 17 17 17 15 16 16 17 17 18 18 19 19 19 19 20 20 22 21 21 21 22

GFSFLT1_sfc_30mbdewp_135.txt.gz
Dewpoint
26 26 26 26 27 29 29 29 30 31 30 30 30 31 31 32 32 32 38 37 36 40 43 44 45 47 53 57 55 52 50 56
26 26 26 27 28 28 28 28 30 29 29 29 29 29 30 30 31 32 33 34 36 35 37 39 42 43 46 51 56 57 56 58
26 26 26 27 27 28 27 28 29 28 28 28 29 29 29 30 31 32 33 33 34 34 35 37 39 42 43 45 51 57 58 59
25 25 26 26 26 27 26 28 28 28 28 27 28 28 29 29 30 31 32 33 34 35 35 36 38 40 41 43 47 51 55 58
25 25 25 25 26 26 26 28 27 26 27 27 27 27 26 28 28 30 31 32 34 35 36 36 37 38 39 40 42 45 50 55
24 25 25 25 25 25 25 27 26 27 27 27 27 26 27 28 29 29 30 32 33 34 35 37 38 39 39 40 42 44 47 50
24 25 24 25 25 25 25 26 25 26 26 25 26 26 27 28 29 29 30 32 34 35 36 37 38 39 38 40 41 41 43 47
24 24 24 24 24 24 24 25 25 25 25 25 25 25 26 28 29 30 30 32 33 34 36 37 38 39 39 39 39 40 42 45
24 24 23 23 23 24 24 24 24 24 24 24 25 25 26 28 29 30 32 33 34 35 35 36 38 40 40 41 40 40 41 43
24 23 23 21 22 23 24 24 24 24 24 24 24 25 26 27 28 29 31 32 33 35 36 36 37 38 41 41 41 40 41 43
24 23 21 19 20 22 23 23 23 24 24 24 24 25 26 28 28 27 28 30 32 33 34 34 35 37 40 43 41 42 42 43
23 21 20 21 21 22 23 23 22 23 23 23 24 25 26 26 26 26 27 29 31 32 33 33 33 34 37 39 43 43 44 45
21 20 20 21 22 23 23 21 20 21 21 22 23 24 24 24 24 25 27 28 30 30 32 31 31 31 32 34 35 35 36 36
17 19 20 21 21 22 22 21 20 20 19 20 20 20 21 22 23 24 26 26 28 29 29 29 29 29 30 30 31 31 31 32
17 17 19 21 21 22 21 21 20 19 18 18 18 19 20 21 21 23 24 24 24 26 27 29 28 27 27 28 27 28 28 29
16 17 19 20 20 20 20 19 20 19 18 18 18 18 19 19 20 20 21 22 22 23 23 24 27 27 27 26 26 25 25 26
16 16 16 17 17 18 17 18 19 18 18 17 17 17 18 18 19 19 19 19 21 20 22 22 23 26 24 24 24 24 24 24
14 16 17 18 18 18 16 16 18 16 17 17 17 16 17 17 17 18 18 18 19 19 19 20 20 20 20 20 20 21 22 23
15 16 18 19 18 16 15 14 13 14 15 16 17 16 16 17 17 17 17 17 17 17 18 19 19 18 16 17 18 19 19 20

GFSFLT1_sfc_30mbdewp_141.txt.gz
Dewpoint
29 30 31 31 32 33 33 33 36 35 33 33 33 33 34 34 34 35 37 38 39 40 40 41 42 41 41 42 44 46 52 52
29 31 31 32 32 33 32 32 34 33 31 32 31 31 32 33 34 35 36 37 38 39 38 39 40 40 41 42 43 44 46 50
28 29 31 32 32 32 31 31 32 32 31 32 31 31 31 32 33 34 35 35 36 36 37 38 39 40 40 41 43 44 45 46
28 29 30 31 31 31 31 31 31 31 32 30 30 30 30 30 30 31 31 33 33 34 35 35 37 39 40 40 41 42 43 45
27 28 29 29 30 31 32 32 31 30 31 30 30 28 27 28 28 29 30 30 31 33 34 35 36 37 37 39 41 42 42 42
28 28 28 28 30 31 32 32 31 31 31 30 29 28 27 27 27 28 28 29 30 31 33 35 36 37 38 38 39 40 42 43
27 28 28 28 30 31 32 31 30 30 30 30 28 27 27 26 26 27 28 29 30 30 31 32 33 35 36 37 38 39 41 41
28 27 27 28 29 30 30 29 29 27 29 29 28 27 26 26 26 26 27 29 30 30 31 33 33 34 35 37 37 39 41 41
28 28 28 26 26 27 26 26 25 27 29 29 28 27 26 26 26 27 27 29 30 30 31 32 34 35 35 36 37 39 39 40
27 28 28 25 22 22 23 21 22 27 29 29 28 27 27 27 27 28 29 30 29 29 31 32 33 34 35 37 38 38 39 40
28 28 27 23 21 22 24 22 23 26 27 28 28 27 27 28 29 30 29 30 30 30 31 31 32 32 33 35 35 41 40 40
31 29 26 24 24 24 25 25 24 23 24 26 27 27 27 27 28 29 29 29 31 31 29 29 29 30 31 32 33 33 34 34
32 29 29 27 27 27 26 24 24 24 22 23 24 24 25 25 25 26 29 28 30 30 30 28 28 29 29 28 29 30 30 30
29 27 26 27 26 26 25 25 24 24 23 23 23 23 23 24 24 24 23 25 28 28 28 27 27 27 29 28 28 28 28 28
27 26 24 24 25 25 25 24 24 24 22 22 21 22 23 23 23 22 21 21 22 21 23 25 25 26 27 29 28 27 28 28
26 24 22 22 21 21 21 22 23 23 21 21 21 21 22 21 21 20 20 21 21 21 19 20 21 21 23 24 26 25 25 25
26 23 19 16 16 17 16 19 22 21 21 20 20 20 20 20 21 20 20 20 21 22 21 20 21 22 19 20 21 20 20 20
25 20 14 14 13 14 15 17 20 18 20 20 19 19 20 20 20 20 20 21 20 20 21 20 19 20 19 20 20 21 19 18
23 16 14 15 11 11 11 10 14 15 15 18 20 20 19 20 20 20 21 20 19 18 18 19 18 18 17 19 20 21 19 18

GFSFLT1_sfc_30mbdewp_147.txt.gz
Dewpoint
32 33 34 35 35 34 35 36 35 35 35 35 34 35 35 35 36 33 35 34 34 34 35 36 37 38 38 38 38 41 44 45
32 33 34 35 35 33 34 34 34 34 33 33 33 32 33 33 32 32 32 31 32 32 33 34 35 35 36 35 36 38 39 44
32 33 34 34 34 33 34 33 34 34 33 33 32 32 32 32 31 31 30 30 31 30 31 32 33 34 35 34 34 35 37 40
30 32 33 33 33 33 34 33 33 33 33 33 32 31 30 29 29 29 29 30 29 30 31 32 32 33 32 33 34 34 34 38
30 31 31 32 33 34 34 34 31 31 33 32 30 29 28 28 28 28 28 29 29 30 31 31 31 31 31 31 32 34 35 35
29 30 30 32 33 34 33 33 30 31 32 31 30 29 29 28 28 27 28 28 29 30 30 30 31 31 32 33 33 33 35 35
29 29 30 32 33 33 31 30 29 31 32 30 29 28 27 27 27 27 28 29 29 30 30 30 31 31 32 33 34 35 35 35
29 29 29 31 30 28 26 25 27 30 30 30 29 28 27 27 28 28 27 28 28 29 30 29 30 31 32 33 34 35 36 35
28 29 29 28 27 26 22 23 27 28 29 29 28 28 27 27 28 28 28 28 29 31 31 29 30 32 32 33 34 33 35 37
29 30 27 25 26 25 23 23 25 26 28 27 27 27 27 27 28 28 28 29 30 30 29 28 29 31 31 32 31 31 33 36
30 29 25 25 27 26 25 25 24 24 25 25 25 26 27 27 28 27 27 29 29 30 28 27 28 29 29 31 30 31 31 31
31 29 27 27 27 26 26 25 25 23 25 26 25 25 26 26 27 26 25 26 25 26 28 27 27 27 27 27 28 28 27 27
31 28 27 24 24 25 25 25 24 24 25 25 25 25 25 25 26 25 25 25 24 23 24 24 24 25 26 24 24 25 25 24
29 28 26 23 23 26 24 24 24 24 24 23 23 24 24 25 24 25 23 23 22 21 22 24 23 22 21 21 22 22 23 23
30 27 25 25 25 23 24 24 24 23 23 22 22 23 23 24 23 24 22 22 21 20 21 22 25 21 20 19 19 18 19 20
30 28 26 25 26 24 24 23 23 22 21 21 21 22 23 24 23 23 22 21 20 20 19 20 23 23 19 18 18 18 16 17
30 29 27 26 26 24 26 23 22 21 20 20 21 21 22 23 24 22 20 19 20 18 18 18 21 25 21 17 17 17 17 15
29 28 26 24 24 25 24 23 22 21 20 19 20 21 21 22 23 22 19 17 18 18 17 17 19 22 20 19 17 16 16 16
28 26 24 21 20 22 23 23 22 21 20 20 20 20 20 21 22 22 21 19 17 17 17 16 17 18 18 18 17 17 15 16

GFSFLT1_sfc_30mbdewp_150.txt.gz
Dewpoint
32 34 35 34 34 35 35 35 34 34 34 34 33 33 34 33 32 31 31 31 32 32 32 33 34 34 34 35 35 34 36 38
33 34 35 34 33 34 34 33 33 33 32 31 32 31 31 31 31 30 29 30 30 30 31 32 33 33 34 34 33 33 34 36
33 34 34 33 33 34 33 33 33 33 32 32 31 30 30 30 30 29 29 29 30 30 30 31 32 31 32 32 31 32 32 33
33 33 33 33 33 33 33 32 32 33 32 31 30 30 29 28 28 28 28 29 30 30 30 30 30 31 31 31 31 30 32 33
33 33 32 32 33 34 33 31 31 32 31 30 28 28 27 28 28 28 28 29 30 30 30 29 30 31 31 32 32 32 33 32
32 32 31 33 34 33 31 30 31 32 30 29 28 27 28 28 28 27 28 28 29 29 30 28 29 30 31 32 32 32 33 33
31 31 32 33 33 31 29 29 30 31 29 28 28 27 27 26 28 27 27 27 27 29 29 29 29 30 31 31 32 34 34 34
29 30 32 32 29 26 26 28 29 30 29 28 27 27 26 26 27 27 27 27 28 28 29 28 29 31 31 32 33 32 33 33
29 30 31 29 25 22 26 27 28 29 27 27 27 27 27 27 28 27 27 28 29 30 29 28 27 30 29 32 31 31 32 32
29 30 29 27 24 23 24 25 26 27 26 25 25 26 26 26 27 27 27 29 27 28 28 27 26 27 27 29 28 28 29 30
29 28 27 26 25 25 25 24 24 25 25 25 25 25 26 26 26 25 26 26 25 26 26 25 25 25 25 25 26 27 27 27
30 27 27 26 26 26 25 24 23 24 25 24 24 25 25 25 25 24 25 24 23 24 25 24 22 23 23 23 23 23 23 23
30 27 27 26 24 24 24 24 23 24 25 24 24 24 24 24 24 23 24 23 22 23 23 24 20 20 20 21 21 22 21 21
28 26 24 24 23 23 23 22 23 24 23 23 23 23 23 23 24 22 22 22 21 21 22 24 20 19 19 19 19 19 20 21
28 26 24 22 24 22 21 22 22 22 21 22 21 22 22 22 23 22 21 20 20 20 21 23 21 19 18 18 18 17 18 19
28 27 25 24 23 23 23 23 22 21 20 20 21 21 23 23 22 21 20 19 18 19 20 22 23 19 18 17 18 17 16 17
30 28 25 26 23 23 22 23 21 20 19 20 20 21 22 22 19 18 19 18 17 17 18 20 22 20 17 17 17 17 16 16
31 29 26 25 24 23 22 21 21 20 19 19 20 20 21 21 21 17 16 16 16 16 17 18 19 19 17 16 17 16 16 16
31 29 27 26 26 25 23 21 20 19 20 20 19 20 21 21 20 18 16 16 15 16 16 17 18 18 16 16 16 15 15 16